Location: Bodest
(46.3000°N, 22.5667°E)
Time: 16:01:29
(UTC+00:00)

SL-19 R/B - Pass Details

Date: 29 May 2022
Orbit: 874 x 1208 km, 100.6° (Epoch: 03 July)

Event Time Altitude Azimuth Distance (km) Brightness Sun altitude
Rises 20:00:42 0° 6° (N) 3,982 8.5 -14.3°
Reaches altitude 10° 20:04:23 10° 347° (NNW) 3,070 8.3 -14.7°
Maximum altitude 20:08:15 16° 313° (NW) 2,688 7.9 -15.1°
Drops below altitude 10° 20:12:12 10° 279° (W) 3,137 7.7 -15.4°
Sets 20:16:02 0° 260° (W) 4,114 8.0 -15.8°
